Time,TemperatureF,DewpointF,PressureIn,WindDirection,WindDirectionDegrees,WindSpeedMPH,WindSpeedGustMPH,Humidity,HourlyPrecipIn,Conditions,Clouds,dailyrainin,SoftwareType,DateUTC
2013-11-10 00:01:00,34.3,32.0,29.52,WNW,292,0.0,4.0,88,0.00,,,0.00,Rainwise IP-100,2013-11-10 05:01:00,
2013-11-10 00:02:00,34.3,32.0,29.52,WNW,292,0.0,4.0,88,0.00,,,0.00,Rainwise IP-100,2013-11-10 05:02:00,
2013-11-10 00:03:00,34.4,32.0,29.52,WNW,292,0.0,4.0,88,0.00,,,0.00,Rainwise IP-100,2013-11-10 05:03:00,
2013-11-10 00:04:00,34.4,32.0,29.52,WNW,292,0.0,4.0,88,0.00,,,0.00,Rainwise IP-100,2013-11-10 05:04:00,
2013-11-10 00:09:00,34.5,32.0,29.52,WNW,292,0.0,1.0,88,0.00,,,0.00,Rainwise IP-100,2013-11-10 05:09:00,
2013-11-10 00:14:00,34.5,32.0,29.52,WNW,292,0.0,0.0,89,0.00,,,0.00,Rainwise IP-100,2013-11-10 05:14:00,
2013-11-10 00:19:00,34.5,32.0,29.51,WNW,292,0.0,0.0,89,0.00,,,0.00,Rainwise IP-100,2013-11-10 05:19:00,
2013-11-10 00:24:00,34.6,32.0,29.50,NNW,337,0.0,0.0,89,0.00,,,0.00,Rainwise IP-100,2013-11-10 05:24:00,
2013-11-10 00:29:00,34.8,32.0,29.51,SE,135,0.0,3.0,89,0.00,,,0.00,Rainwise IP-100,2013-11-10 05:29:00,
2013-11-10 00:34:00,34.8,32.0,29.50,NNE,22,1.2,1.2,89,0.00,,,0.00,Rainwise IP-100,2013-11-10 05:34:00,
2013-11-10 00:39:00,34.8,32.0,29.50,NNE,22,0.0,1.0,90,0.00,,,0.00,Rainwise IP-100,2013-11-10 05:39:00,
2013-11-10 00:44:00,34.8,32.0,29.50,ESE,112,0.0,3.0,90,0.00,,,0.00,Rainwise IP-100,2013-11-10 05:44:00,
2013-11-10 00:49:00,34.8,32.0,29.49,SE,135,1.4,2.0,90,0.00,,,0.00,Rainwise IP-100,2013-11-10 05:49:00,
2013-11-10 00:55:00,34.8,32.0,29.49,WSW,247,1.2,2.0,91,0.00,,,0.00,Rainwise IP-100,2013-11-10 05:55:00,
2013-11-10 01:00:00,34.8,32.0,29.49,WSW,247,1.6,2.0,91,0.00,,,0.00,Rainwise IP-100,2013-11-10 06:00:00,
2013-11-10 01:05:00,34.7,32.0,29.49,SSW,202,1.9,3.0,91,0.06,,,0.01,Rainwise IP-100,2013-11-10 06:05:00,
2013-11-10 01:10:00,34.7,32.0,29.49,SSW,202,0.0,2.0,91,0.06,,,0.01,Rainwise IP-100,2013-11-10 06:10:00,
2013-11-10 01:15:00,34.7,32.0,29.48,SSW,202,0.0,1.0,92,0.00,,,0.01,Rainwise IP-100,2013-11-10 06:15:00,
2013-11-10 01:20:00,34.6,32.0,29.47,SSW,202,0.0,0.0,92,0.00,,,0.01,Rainwise IP-100,2013-11-10 06:20:00,
2013-11-10 01:25:00,34.6,32.0,29.48,SW,225,0.0,2.0,92,0.00,,,0.01,Rainwise IP-100,2013-11-10 06:25:00,
2013-11-10 01:30:00,34.6,32.0,29.47,SSW,202,0.0,3.0,92,0.00,,,0.01,Rainwise IP-100,2013-11-10 06:30:00,
2013-11-10 01:35:00,34.6,32.0,29.47,SSW,202,0.0,0.0,92,0.00,,,0.01,Rainwise IP-100,2013-11-10 06:35:00,
2013-11-10 01:40:00,34.6,32.0,29.47,SSW,202,0.0,0.0,92,0.00,,,0.01,Rainwise IP-100,2013-11-10 06:40:00,
2013-11-10 01:45:00,34.6,32.0,29.46,SSW,202,0.0,1.0,92,0.00,,,0.01,Rainwise IP-100,2013-11-10 06:45:00,
2013-11-10 01:50:00,34.6,32.0,29.46,SSW,202,0.0,1.0,92,0.00,,,0.01,Rainwise IP-100,2013-11-10 06:50:00,
2013-11-10 01:55:00,34.7,33.0,29.46,SSW,202,0.0,0.0,93,0.00,,,0.01,Rainwise IP-100,2013-11-10 06:55:00,
2013-11-10 02:00:00,34.7,33.0,29.46,SSW,202,0.0,0.0,93,0.00,,,0.01,Rainwise IP-100,2013-11-10 07:00:00,
2013-11-10 02:05:00,34.7,33.0,29.46,SSW,202,0.0,0.0,93,0.00,,,0.01,Rainwise IP-100,2013-11-10 07:05:00,
2013-11-10 02:11:00,34.7,33.0,29.46,SSW,202,0.0,0.0,93,0.00,,,0.01,Rainwise IP-100,2013-11-10 07:11:00,
2013-11-10 02:16:00,34.5,33.0,29.45,SSW,202,0.0,0.0,93,0.00,,,0.01,Rainwise IP-100,2013-11-10 07:16:00,
2013-11-10 02:21:00,34.5,33.0,29.44,SSW,202,0.0,1.0,94,0.00,,,0.01,Rainwise IP-100,2013-11-10 07:21:00,
2013-11-10 02:26:00,34.4,33.0,29.45,SSW,202,1.4,0.0,94,0.00,,,0.01,Rainwise IP-100,2013-11-10 07:26:00,
2013-11-10 02:31:00,34.5,33.0,29.44,SSW,202,0.0,2.0,94,0.00,,,0.01,Rainwise IP-100,2013-11-10 07:31:00,
2013-11-10 02:36:00,34.4,33.0,29.44,SSW,202,0.0,0.0,94,0.00,,,0.01,Rainwise IP-100,2013-11-10 07:36:00,
2013-11-10 02:41:00,34.3,33.0,29.44,SSW,202,0.0,0.0,94,0.00,,,0.01,Rainwise IP-100,2013-11-10 07:41:00,
2013-11-10 02:46:00,34.2,33.0,29.44,SSW,202,0.0,0.0,95,0.06,,,0.02,Rainwise IP-100,2013-11-10 07:46:00,
2013-11-10 02:51:00,34.1,33.0,29.43,SSW,202,0.0,0.0,95,0.06,,,0.02,Rainwise IP-100,2013-11-10 07:51:00,
2013-11-10 02:56:00,34.0,33.0,29.43,SSW,202,0.0,0.0,95,0.00,,,0.02,Rainwise IP-100,2013-11-10 07:56:00,
2013-11-10 03:01:00,34.1,33.0,29.43,SSW,202,0.0,0.0,95,0.00,,,0.02,Rainwise IP-100,2013-11-10 08:01:00,
2013-11-10 03:06:00,34.2,33.0,29.43,SSW,202,0.0,1.0,95,0.00,,,0.02,Rainwise IP-100,2013-11-10 08:06:00,
2013-11-10 03:11:00,34.2,33.0,29.43,SSW,202,0.0,0.0,95,0.00,,,0.02,Rainwise IP-100,2013-11-10 08:11:00,
2013-11-10 03:16:00,34.2,33.0,29.43,SSW,202,1.4,1.4,94,0.00,,,0.02,Rainwise IP-100,2013-11-10 08:16:00,
2013-11-10 03:21:00,34.0,33.0,29.42,ENE,67,0.0,2.0,95,0.00,,,0.02,Rainwise IP-100,2013-11-10 08:21:00,
2013-11-10 03:27:00,33.8,33.0,29.42,NNW,337,2.8,0.0,95,0.00,,,0.02,Rainwise IP-100,2013-11-10 08:27:00,
2013-11-10 03:32:00,33.8,33.0,29.42,NNW,337,1.2,2.0,96,0.06,,,0.03,Rainwise IP-100,2013-11-10 08:32:00,
2013-11-10 03:37:00,33.7,33.0,29.42,NNW,337,0.0,1.0,96,0.06,,,0.03,Rainwise IP-100,2013-11-10 08:37:00,
2013-11-10 03:42:00,33.6,33.0,29.42,NNW,337,0.0,1.0,96,0.00,,,0.03,Rainwise IP-100,2013-11-10 08:42:00,
2013-11-10 03:47:00,33.5,33.0,29.42,NNW,337,0.0,1.0,96,0.06,,,0.04,Rainwise IP-100,2013-11-10 08:47:00,
2013-11-10 03:52:00,33.3,32.0,29.42,NNW,337,0.0,1.0,96,0.06,,,0.04,Rainwise IP-100,2013-11-10 08:52:00,
2013-11-10 03:57:00,33.2,32.0,29.42,NNW,337,0.0,0.0,96,0.00,,,0.04,Rainwise IP-100,2013-11-10 08:57:00,
2013-11-10 04:02:00,33.1,32.0,29.41,NNW,337,0.0,0.0,94,0.06,,,0.05,Rainwise IP-100,2013-11-10 09:02:00,
2013-11-10 04:07:00,32.9,32.0,29.41,NNW,337,1.6,1.6,93,0.06,,,0.05,Rainwise IP-100,2013-11-10 09:07:00,
2013-11-10 04:12:00,32.7,32.0,29.41,NNW,337,0.0,2.0,95,0.00,,,0.05,Rainwise IP-100,2013-11-10 09:12:00,
2013-11-10 04:17:00,32.7,32.0,29.41,NNW,337,0.0,1.0,95,0.00,,,0.05,Rainwise IP-100,2013-11-10 09:17:00,
2013-11-10 04:23:00,32.7,32.0,29.41,NNW,337,0.0,0.0,96,0.00,,,0.05,Rainwise IP-100,2013-11-10 09:23:00,
2013-11-10 04:28:00,32.7,32.0,29.41,NNW,337,1.4,1.4,96,0.00,,,0.05,Rainwise IP-100,2013-11-10 09:28:00,
2013-11-10 04:33:00,32.6,32.0,29.40,NNW,337,0.0,1.0,96,0.00,,,0.05,Rainwise IP-100,2013-11-10 09:33:00,
2013-11-10 04:38:00,32.7,32.0,29.40,NNW,337,0.0,0.0,96,0.00,,,0.05,Rainwise IP-100,2013-11-10 09:38:00,
2013-11-10 04:43:00,32.7,32.0,29.39,NNW,337,0.0,0.0,96,0.00,,,0.05,Rainwise IP-100,2013-11-10 09:43:00,
2013-11-10 04:48:00,32.7,32.0,29.39,NNW,337,0.0,1.0,96,0.06,,,0.06,Rainwise IP-100,2013-11-10 09:48:00,
2013-11-10 04:53:00,32.5,32.0,29.39,NNW,337,1.2,1.2,97,0.06,,,0.06,Rainwise IP-100,2013-11-10 09:53:00,
2013-11-10 04:58:00,32.6,32.0,29.39,NNW,337,0.0,1.0,97,0.00,,,0.06,Rainwise IP-100,2013-11-10 09:58:00,
2013-11-10 05:03:00,32.8,32.0,29.39,NNW,337,0.0,1.0,97,0.00,,,0.06,Rainwise IP-100,2013-11-10 10:03:00,
2013-11-10 05:08:00,32.9,32.0,29.39,NNW,337,0.0,0.0,97,0.00,,,0.06,Rainwise IP-100,2013-11-10 10:08:00,
2013-11-10 05:13:00,32.9,32.0,29.39,NNW,337,0.0,0.0,97,0.00,,,0.06,Rainwise IP-100,2013-11-10 10:13:00,
2013-11-10 05:18:00,32.7,32.0,29.39,NNW,337,0.0,0.0,96,0.00,,,0.06,Rainwise IP-100,2013-11-10 10:18:00,
2013-11-10 05:23:00,32.7,32.0,29.39,NNW,337,0.0,0.0,96,0.00,,,0.06,Rainwise IP-100,2013-11-10 10:23:00,
2013-11-10 05:28:00,32.7,32.0,29.38,NNW,337,0.0,0.0,96,0.00,,,0.06,Rainwise IP-100,2013-11-10 10:28:00,
2013-11-10 05:33:00,32.6,32.0,29.38,NNW,337,0.0,0.0,97,0.00,,,0.06,Rainwise IP-100,2013-11-10 10:33:00,
2013-11-10 05:37:00,32.4,31.0,29.38,NNW,337,0.0,0.0,97,0.00,,,0.06,Rainwise IP-100,2013-11-10 10:37:00,
2013-11-10 05:42:00,32.3,31.0,29.38,NNW,337,0.0,0.0,97,0.00,,,0.06,Rainwise IP-100,2013-11-10 10:42:00,
2013-11-10 05:47:00,32.2,31.0,29.38,NNW,337,1.9,1.9,97,0.00,,,0.06,Rainwise IP-100,2013-11-10 10:47:00,
2013-11-10 05:52:00,32.1,31.0,29.37,NNW,337,1.4,2.0,97,0.00,,,0.06,Rainwise IP-100,2013-11-10 10:52:00,
2013-11-10 05:57:00,32.0,31.0,29.37,NNW,337,0.0,2.0,97,0.00,,,0.06,Rainwise IP-100,2013-11-10 10:57:00,
2013-11-10 06:02:00,32.1,31.0,29.37,NNW,337,0.0,0.0,97,0.00,,,0.06,Rainwise IP-100,2013-11-10 11:02:00,
2013-11-10 06:07:00,32.0,32.0,29.37,NNW,337,0.0,0.0,98,0.00,,,0.06,Rainwise IP-100,2013-11-10 11:07:00,
2013-11-10 06:12:00,32.0,32.0,29.37,NNW,337,0.0,0.0,98,0.00,,,0.06,Rainwise IP-100,2013-11-10 11:12:00,
2013-11-10 06:17:00,32.0,32.0,29.37,NNW,337,0.0,0.0,98,0.00,,,0.06,Rainwise IP-100,2013-11-10 11:17:00,
2013-11-10 06:23:00,32.1,32.0,29.37,NNW,337,0.0,0.0,98,0.00,,,0.06,Rainwise IP-100,2013-11-10 11:23:00,
2013-11-10 06:28:00,31.9,32.0,29.37,NNW,337,0.0,0.0,98,0.00,,,0.06,Rainwise IP-100,2013-11-10 11:28:00,
2013-11-10 06:33:00,32.0,32.0,29.37,NNW,337,0.0,0.0,98,0.00,,,0.06,Rainwise IP-100,2013-11-10 11:33:00,
2013-11-10 06:38:00,32.1,32.0,29.37,NNW,337,0.0,0.0,98,0.00,,,0.06,Rainwise IP-100,2013-11-10 11:38:00,
2013-11-10 06:43:00,32.1,32.0,29.36,NNW,337,0.0,0.0,98,0.00,,,0.06,Rainwise IP-100,2013-11-10 11:43:00,
2013-11-10 06:48:00,32.2,32.0,29.36,NNW,337,1.2,2.0,98,0.00,,,0.06,Rainwise IP-100,2013-11-10 11:48:00,
2013-11-10 06:53:00,32.4,32.0,29.36,NNW,337,0.0,1.0,98,0.00,,,0.06,Rainwise IP-100,2013-11-10 11:53:00,
2013-11-10 06:58:00,32.5,33.0,29.37,NNW,337,0.0,1.0,98,0.00,,,0.06,Rainwise IP-100,2013-11-10 11:58:00,
2013-11-10 07:03:00,32.5,33.0,29.36,NNW,337,0.0,0.0,98,0.00,,,0.06,Rainwise IP-100,2013-11-10 12:03:00,
2013-11-10 07:08:00,32.5,33.0,29.37,NNW,337,0.0,0.0,98,0.00,,,0.06,Rainwise IP-100,2013-11-10 12:08:00,
2013-11-10 07:13:00,32.5,33.0,29.37,NNW,337,0.0,0.0,98,0.00,,,0.06,Rainwise IP-100,2013-11-10 12:13:00,
2013-11-10 07:18:00,32.6,33.0,29.37,NNW,337,0.0,0.0,98,0.00,,,0.06,Rainwise IP-100,2013-11-10 12:18:00,
2013-11-10 07:23:00,32.6,33.0,29.37,NNW,337,0.0,0.0,98,0.00,,,0.06,Rainwise IP-100,2013-11-10 12:23:00,
2013-11-10 07:28:00,32.7,33.0,29.37,NNW,337,0.0,0.0,98,0.00,,,0.06,Rainwise IP-100,2013-11-10 12:28:00,
2013-11-10 07:33:00,32.9,33.0,29.37,NNW,337,0.0,0.0,98,0.00,,,0.06,Rainwise IP-100,2013-11-10 12:33:00,
2013-11-10 07:39:00,32.9,33.0,29.37,NNW,337,0.0,0.0,98,0.00,,,0.06,Rainwise IP-100,2013-11-10 12:39:00,
2013-11-10 07:44:00,33.0,33.0,29.37,NNW,337,0.0,0.0,98,0.00,,,0.06,Rainwise IP-100,2013-11-10 12:44:00,
2013-11-10 07:49:00,33.3,33.0,29.37,NNW,337,1.4,1.4,98,0.00,,,0.06,Rainwise IP-100,2013-11-10 12:49:00,
2013-11-10 07:54:00,33.3,33.0,29.37,NNW,337,0.0,1.0,98,0.00,,,0.06,Rainwise IP-100,2013-11-10 12:54:00,
2013-11-10 07:59:00,33.2,33.0,29.37,NNW,337,0.0,0.0,98,0.00,,,0.06,Rainwise IP-100,2013-11-10 12:59:00,
2013-11-10 08:04:00,33.2,32.0,29.37,NNW,337,0.0,0.0,97,0.00,,,0.06,Rainwise IP-100,2013-11-10 13:04:00,
2013-11-10 08:09:00,33.3,32.0,29.37,NNW,337,0.0,0.0,96,0.06,,,0.07,Rainwise IP-100,2013-11-10 13:09:00,
2013-11-10 08:14:00,33.6,33.0,29.38,NNW,337,0.0,1.0,95,0.06,,,0.07,Rainwise IP-100,2013-11-10 13:14:00,
2013-11-10 08:19:00,33.7,33.0,29.37,NNW,337,0.0,0.0,96,0.00,,,0.07,Rainwise IP-100,2013-11-10 13:19:00,
2013-11-10 08:24:00,33.8,33.0,29.37,NNW,337,0.0,1.0,97,0.00,,,0.07,Rainwise IP-100,2013-11-10 13:24:00,
2013-11-10 08:29:00,33.9,33.0,29.38,NNW,337,1.2,1.2,97,0.00,,,0.07,Rainwise IP-100,2013-11-10 13:29:00,
2013-11-10 08:34:00,34.0,35.0,29.37,NNW,337,0.0,2.0,98,0.00,,,0.07,Rainwise IP-100,2013-11-10 13:34:00,
2013-11-10 08:39:00,34.0,35.0,29.37,NNE,22,2.6,3.0,98,0.00,,,0.07,Rainwise IP-100,2013-11-10 13:39:00,
2013-11-10 08:44:00,33.9,35.0,29.37,NNE,22,2.6,3.0,98,0.00,,,0.07,Rainwise IP-100,2013-11-10 13:44:00,
2013-11-10 08:49:00,34.1,35.0,29.36,NNE,22,0.0,2.0,98,0.00,,,0.07,Rainwise IP-100,2013-11-10 13:49:00,
2013-11-10 08:55:00,34.1,35.0,29.37,NNE,22,0.0,0.0,98,0.00,,,0.08,Rainwise IP-100,2013-11-10 13:55:00,
2013-11-10 09:00:00,34.2,35.0,29.37,NNE,22,0.0,0.0,98,0.06,,,0.08,Rainwise IP-100,2013-11-10 14:00:00,
2013-11-10 09:05:00,34.4,33.0,29.36,NNE,22,0.0,0.0,97,0.00,,,0.08,Rainwise IP-100,2013-11-10 14:05:00,
2013-11-10 09:10:00,34.5,33.0,29.36,NNE,22,0.0,0.0,97,0.00,,,0.08,Rainwise IP-100,2013-11-10 14:10:00,
2013-11-10 09:15:00,34.6,33.0,29.36,NNE,22,0.0,0.0,97,0.00,,,0.08,Rainwise IP-100,2013-11-10 14:15:00,
2013-11-10 09:20:00,34.8,33.0,29.36,NNE,22,0.0,0.0,97,0.00,,,0.08,Rainwise IP-100,2013-11-10 14:20:00,
2013-11-10 09:25:00,34.9,33.0,29.35,NNE,22,0.0,0.0,97,0.00,,,0.08,Rainwise IP-100,2013-11-10 14:25:00,
2013-11-10 09:30:00,35.1,33.0,29.35,NNE,22,0.0,0.0,97,0.00,,,0.08,Rainwise IP-100,2013-11-10 14:30:00,
2013-11-10 09:35:00,35.3,33.0,29.35,NNE,22,0.0,0.0,97,0.00,,,0.08,Rainwise IP-100,2013-11-10 14:35:00,
2013-11-10 09:40:00,35.6,35.0,29.35,NNE,22,0.0,0.0,97,0.00,,,0.08,Rainwise IP-100,2013-11-10 14:40:00,
2013-11-10 09:45:00,35.8,35.0,29.35,NNE,22,0.0,1.0,96,0.00,,,0.08,Rainwise IP-100,2013-11-10 14:45:00,
2013-11-10 09:50:00,36.1,35.0,29.34,NNE,22,1.6,2.0,96,0.00,,,0.08,Rainwise IP-100,2013-11-10 14:50:00,
2013-11-10 09:55:00,36.4,35.0,29.34,NNE,22,0.0,2.0,96,0.00,,,0.08,Rainwise IP-100,2013-11-10 14:55:00,
2013-11-10 10:00:00,36.5,36.0,29.34,NNE,22,0.0,1.0,97,0.00,,,0.08,Rainwise IP-100,2013-11-10 15:00:00,
2013-11-10 10:05:00,36.5,36.0,29.34,NNE,22,0.0,1.0,96,0.00,,,0.08,Rainwise IP-100,2013-11-10 15:05:00,
2013-11-10 10:11:00,36.5,36.0,29.34,NNE,22,1.9,1.9,96,0.00,,,0.08,Rainwise IP-100,2013-11-10 15:11:00,
2013-11-10 10:16:00,36.7,36.0,29.34,NNE,22,0.0,2.0,95,0.00,,,0.08,Rainwise IP-100,2013-11-10 15:16:00,
2013-11-10 10:21:00,37.0,36.0,29.34,NNE,22,0.0,1.0,95,0.00,,,0.08,Rainwise IP-100,2013-11-10 15:21:00,
2013-11-10 10:26:00,37.1,36.0,29.33,NNE,22,2.1,2.1,95,0.00,,,0.08,Rainwise IP-100,2013-11-10 15:26:00,
2013-11-10 10:31:00,37.1,36.0,29.33,ENE,67,0.0,3.0,96,0.00,,,0.08,Rainwise IP-100,2013-11-10 15:31:00,
2013-11-10 10:36:00,37.4,36.0,29.33,ENE,67,1.2,1.2,96,0.00,,,0.08,Rainwise IP-100,2013-11-10 15:36:00,
2013-11-10 10:41:00,37.8,37.0,29.33,ENE,67,0.0,1.0,96,0.00,,,0.08,Rainwise IP-100,2013-11-10 15:41:00,
2013-11-10 10:46:00,38.0,37.0,29.33,ENE,67,0.0,1.0,97,0.00,,,0.08,Rainwise IP-100,2013-11-10 15:46:00,
2013-11-10 10:51:00,38.3,37.0,29.33,NNE,22,2.3,3.0,97,0.00,,,0.08,Rainwise IP-100,2013-11-10 15:51:00,
2013-11-10 10:56:00,39.1,38.0,29.32,NNE,22,0.0,2.0,97,0.00,,,0.08,Rainwise IP-100,2013-11-10 15:56:00,
2013-11-10 11:01:00,39.4,38.0,29.33,NE,45,1.4,3.0,97,0.00,,,0.08,Rainwise IP-100,2013-11-10 16:01:00,
2013-11-10 11:06:00,39.2,38.0,29.32,NE,45,3.0,3.0,96,0.00,,,0.08,Rainwise IP-100,2013-11-10 16:06:00,
2013-11-10 11:11:00,39.4,38.0,29.32,NNE,22,3.7,4.0,95,0.00,,,0.08,Rainwise IP-100,2013-11-10 16:11:00,
2013-11-10 11:16:00,39.9,39.0,29.32,NNE,22,0.0,4.0,95,0.00,,,0.08,Rainwise IP-100,2013-11-10 16:16:00,
2013-11-10 11:21:00,40.3,39.0,29.31,SW,225,2.8,3.0,96,0.00,,,0.08,Rainwise IP-100,2013-11-10 16:21:00,
2013-11-10 11:27:00,40.7,40.0,29.31,SW,225,0.0,3.0,96,0.00,,,0.08,Rainwise IP-100,2013-11-10 16:27:00,
2013-11-10 11:32:00,40.9,40.0,29.31,SW,225,0.0,5.0,96,0.00,,,0.08,Rainwise IP-100,2013-11-10 16:32:00,
2013-11-10 11:37:00,41.1,40.0,29.30,SSE,157,0.0,2.0,96,0.00,,,0.08,Rainwise IP-100,2013-11-10 16:37:00,
2013-11-10 11:42:00,41.2,40.0,29.30,SE,135,1.9,4.0,96,0.00,,,0.08,Rainwise IP-100,2013-11-10 16:42:00,
2013-11-10 11:47:00,41.4,40.0,29.30,ENE,67,0.0,2.0,97,0.00,,,0.08,Rainwise IP-100,2013-11-10 16:47:00,
2013-11-10 11:52:00,41.6,41.0,29.30,ESE,112,2.1,2.1,97,0.00,,,0.08,Rainwise IP-100,2013-11-10 16:52:00,
2013-11-10 11:57:00,41.6,41.0,29.30,South,180,1.2,3.0,96,0.00,,,0.08,Rainwise IP-100,2013-11-10 16:57:00,
2013-11-10 12:02:00,41.7,41.0,29.29,SSW,202,0.0,2.0,96,0.00,,,0.08,Rainwise IP-100,2013-11-10 17:02:00,
2013-11-10 12:07:00,41.7,41.0,29.29,SW,225,0.0,2.0,96,0.00,,,0.08,Rainwise IP-100,2013-11-10 17:07:00,
2013-11-10 12:12:00,41.5,41.0,29.29,SW,225,0.0,1.0,95,0.00,,,0.08,Rainwise IP-100,2013-11-10 17:12:00,
2013-11-10 12:17:00,41.5,41.0,29.29,WSW,247,0.0,0.0,95,0.00,,,0.08,Rainwise IP-100,2013-11-10 17:17:00,
2013-11-10 12:22:00,41.6,41.0,29.29,WSW,247,0.0,0.0,96,0.00,,,0.08,Rainwise IP-100,2013-11-10 17:22:00,
2013-11-10 12:27:00,41.5,41.0,29.28,NNW,337,2.8,0.0,97,0.00,,,0.08,Rainwise IP-100,2013-11-10 17:27:00,
2013-11-10 12:32:00,41.3,40.0,29.28,NNW,337,2.1,2.1,97,0.00,,,0.08,Rainwise IP-100,2013-11-10 17:32:00,
2013-11-10 12:37:00,41.1,40.0,29.28,NNW,337,0.0,2.0,95,0.00,,,0.08,Rainwise IP-100,2013-11-10 17:37:00,
2013-11-10 12:43:00,41.2,40.0,29.28,NNW,337,0.0,0.0,95,0.00,,,0.08,Rainwise IP-100,2013-11-10 17:43:00,
2013-11-10 12:48:00,41.4,40.0,29.28,NNW,337,0.0,1.0,96,0.00,,,0.08,Rainwise IP-100,2013-11-10 17:48:00,
2013-11-10 12:53:00,41.5,41.0,29.27,NNW,337,0.0,1.0,97,0.00,,,0.08,Rainwise IP-100,2013-11-10 17:53:00,
2013-11-10 12:58:00,41.7,41.0,29.27,WSW,247,0.0,0.0,97,0.00,,,0.08,Rainwise IP-100,2013-11-10 17:58:00,
2013-11-10 13:03:00,41.9,41.0,29.27,SSW,202,0.0,2.0,97,0.00,,,0.08,Rainwise IP-100,2013-11-10 18:03:00,
2013-11-10 13:08:00,41.8,41.0,29.27,WSW,247,2.6,5.0,96,0.00,,,0.08,Rainwise IP-100,2013-11-10 18:08:00,
2013-11-10 13:13:00,41.8,41.0,29.27,WSW,247,1.9,3.0,96,0.00,,,0.08,Rainwise IP-100,2013-11-10 18:13:00,
2013-11-10 13:18:00,42.0,41.0,29.27,SW,225,1.4,3.0,95,0.00,,,0.08,Rainwise IP-100,2013-11-10 18:18:00,
2013-11-10 13:23:00,42.2,41.0,29.27,SSW,202,4.7,5.0,95,0.00,,,0.08,Rainwise IP-100,2013-11-10 18:23:00,
2013-11-10 13:28:00,42.4,41.0,29.26,SSW,202,4.2,6.0,96,0.00,,,0.08,Rainwise IP-100,2013-11-10 18:28:00,
2013-11-10 13:33:00,42.7,42.0,29.26,SW,225,4.0,6.0,96,0.00,,,0.08,Rainwise IP-100,2013-11-10 18:33:00,
2013-11-10 13:38:00,43.1,42.0,29.27,SSW,202,5.4,9.0,95,0.00,,,0.08,Rainwise IP-100,2013-11-10 18:38:00,
2013-11-10 13:43:00,43.6,42.0,29.26,SW,225,3.0,14.0,93,0.00,,,0.08,Rainwise IP-100,2013-11-10 18:43:00,
2013-11-10 13:48:00,44.1,41.0,29.26,SSE,157,5.1,9.0,91,0.00,,,0.08,Rainwise IP-100,2013-11-10 18:48:00,
2013-11-10 13:53:00,44.4,41.0,29.26,SW,225,2.6,7.0,90,0.00,,,0.08,Rainwise IP-100,2013-11-10 18:53:00,
2013-11-10 13:59:00,44.6,42.0,29.26,SW,225,2.1,5.0,90,0.00,,,0.08,Rainwise IP-100,2013-11-10 18:59:00,
2013-11-10 14:04:00,44.6,42.0,29.27,NNW,337,1.9,4.0,90,0.00,,,0.08,Rainwise IP-100,2013-11-10 19:04:00,
2013-11-10 14:09:00,44.6,42.0,29.28,North,360,3.3,4.0,90,0.00,,,0.08,Rainwise IP-100,2013-11-10 19:09:00,
2013-11-10 14:14:00,44.2,41.0,29.28,NNE,22,10.5,11.0,91,0.06,,,0.09,Rainwise IP-100,2013-11-10 19:14:00,
2013-11-10 14:19:00,43.0,40.0,29.27,NE,45,4.9,13.0,91,0.12,,,0.10,Rainwise IP-100,2013-11-10 19:19:00,
2013-11-10 14:24:00,41.9,40.0,29.27,ENE,67,4.2,7.0,91,0.12,,,0.11,Rainwise IP-100,2013-11-10 19:24:00,
2013-11-10 14:29:00,41.3,39.0,29.28,NE,45,3.3,4.0,92,0.06,,,0.11,Rainwise IP-100,2013-11-10 19:29:00,
2013-11-10 14:34:00,40.7,39.0,29.27,ENE,67,3.5,4.0,92,0.00,,,0.11,Rainwise IP-100,2013-11-10 19:34:00,
2013-11-10 14:39:00,40.1,38.0,29.27,ENE,67,0.0,4.0,92,0.00,,,0.11,Rainwise IP-100,2013-11-10 19:39:00,
2013-11-10 14:44:00,40.1,38.0,29.27,ENE,67,0.0,1.0,93,0.00,,,0.11,Rainwise IP-100,2013-11-10 19:44:00,
2013-11-10 14:49:00,40.6,40.0,29.27,ENE,67,2.1,2.1,95,0.00,,,0.11,Rainwise IP-100,2013-11-10 19:49:00,
2013-11-10 14:54:00,40.9,40.0,29.27,NE,45,2.1,2.1,95,0.00,,,0.11,Rainwise IP-100,2013-11-10 19:54:00,
2013-11-10 14:59:00,41.0,40.0,29.27,NE,45,0.0,2.0,95,0.00,,,0.11,Rainwise IP-100,2013-11-10 19:59:00,
2013-11-10 15:04:00,40.9,40.0,29.27,NE,45,0.0,1.0,95,0.00,,,0.11,Rainwise IP-100,2013-11-10 20:04:00,
2013-11-10 15:09:00,40.9,40.0,29.27,West,270,2.1,3.0,96,0.00,,,0.11,Rainwise IP-100,2013-11-10 20:09:00,
2013-11-10 15:15:00,41.0,40.0,29.27,WSW,247,2.6,5.0,96,0.00,,,0.11,Rainwise IP-100,2013-11-10 20:15:00,
2013-11-10 15:20:00,41.2,40.0,29.28,SSW,202,3.7,5.0,96,0.00,,,0.11,Rainwise IP-100,2013-11-10 20:20:00,
2013-11-10 15:25:00,41.4,40.0,29.27,South,180,0.0,3.0,95,0.00,,,0.11,Rainwise IP-100,2013-11-10 20:25:00,
2013-11-10 15:30:00,41.6,40.0,29.28,West,270,1.2,4.0,94,0.00,,,0.11,Rainwise IP-100,2013-11-10 20:30:00,
2013-11-10 15:35:00,41.7,40.0,29.28,WSW,247,0.0,1.0,93,0.00,,,0.11,Rainwise IP-100,2013-11-10 20:35:00,
2013-11-10 15:40:00,41.6,40.0,29.29,WSW,247,0.0,1.0,94,0.00,,,0.11,Rainwise IP-100,2013-11-10 20:40:00,
2013-11-10 15:45:00,41.5,41.0,29.29,WSW,247,0.0,0.0,95,0.00,,,0.11,Rainwise IP-100,2013-11-10 20:45:00,
2013-11-10 15:50:00,41.5,41.0,29.29,WSW,247,1.9,2.0,95,0.00,,,0.11,Rainwise IP-100,2013-11-10 20:50:00,
2013-11-10 15:55:00,41.4,40.0,29.29,SW,225,3.3,3.3,96,0.00,,,0.11,Rainwise IP-100,2013-11-10 20:55:00,
2013-11-10 16:00:00,41.3,40.0,29.29,SW,225,3.0,4.0,96,0.00,,,0.11,Rainwise IP-100,2013-11-10 21:00:00,
2013-11-10 16:05:00,41.3,40.0,29.29,SW,225,2.8,5.0,96,0.00,,,0.11,Rainwise IP-100,2013-11-10 21:05:00,
2013-11-10 16:10:00,41.4,39.0,29.29,SW,225,3.3,5.0,94,0.00,,,0.11,Rainwise IP-100,2013-11-10 21:10:00,
2013-11-10 16:15:00,41.5,40.0,29.29,SW,225,2.8,7.0,94,0.00,,,0.11,Rainwise IP-100,2013-11-10 21:15:00,
2013-11-10 16:20:00,41.5,40.0,29.30,SSW,202,4.0,7.0,93,0.00,,,0.11,Rainwise IP-100,2013-11-10 21:20:00,
2013-11-10 16:25:00,41.3,39.0,29.29,SSW,202,6.8,6.8,94,0.00,,,0.11,Rainwise IP-100,2013-11-10 21:25:00,
2013-11-10 16:31:00,41.1,39.0,29.30,SSW,202,2.1,7.0,94,0.00,,,0.11,Rainwise IP-100,2013-11-10 21:31:00,
2013-11-10 16:36:00,41.0,39.0,29.30,SSW,202,4.0,5.0,93,0.00,,,0.11,Rainwise IP-100,2013-11-10 21:36:00,
2013-11-10 16:41:00,41.0,39.0,29.30,South,180,4.2,7.0,93,0.00,,,0.11,Rainwise IP-100,2013-11-10 21:41:00,
2013-11-10 16:46:00,41.0,39.0,29.30,SW,225,2.6,4.0,93,0.00,,,0.11,Rainwise IP-100,2013-11-10 21:46:00,
2013-11-10 16:51:00,41.0,39.0,29.30,SSW,202,3.5,5.0,93,0.00,,,0.11,Rainwise IP-100,2013-11-10 21:51:00,
2013-11-10 16:56:00,40.8,39.0,29.30,South,180,1.6,5.0,93,0.00,,,0.11,Rainwise IP-100,2013-11-10 21:56:00,
2013-11-10 17:01:00,40.7,39.0,29.31,SSW,202,3.0,4.0,93,0.00,,,0.11,Rainwise IP-100,2013-11-10 22:01:00,
2013-11-10 17:06:00,40.6,39.0,29.31,SW,225,2.1,3.0,94,0.00,,,0.11,Rainwise IP-100,2013-11-10 22:06:00,
2013-11-10 17:11:00,40.5,39.0,29.31,WSW,247,3.3,5.0,94,0.00,,,0.11,Rainwise IP-100,2013-11-10 22:11:00,
2013-11-10 17:16:00,40.4,39.0,29.31,SW,225,3.0,4.0,94,0.00,,,0.11,Rainwise IP-100,2013-11-10 22:16:00,
2013-11-10 17:21:00,40.3,39.0,29.31,SW,225,1.4,3.0,94,0.00,,,0.11,Rainwise IP-100,2013-11-10 22:21:00,
2013-11-10 17:26:00,39.9,39.0,29.31,SW,225,2.1,2.1,94,0.00,,,0.11,Rainwise IP-100,2013-11-10 22:26:00,
2013-11-10 17:31:00,39.5,39.0,29.31,SW,225,0.0,2.0,95,0.00,,,0.11,Rainwise IP-100,2013-11-10 22:31:00,
2013-11-10 17:36:00,39.3,38.0,29.31,SW,225,2.8,2.8,96,0.00,,,0.11,Rainwise IP-100,2013-11-10 22:36:00,
2013-11-10 17:41:00,39.2,38.0,29.31,SW,225,0.0,3.0,97,0.00,,,0.11,Rainwise IP-100,2013-11-10 22:41:00,
2013-11-10 17:47:00,39.2,38.0,29.31,SW,225,1.4,2.0,96,0.00,,,0.11,Rainwise IP-100,2013-11-10 22:47:00,
2013-11-10 17:52:00,39.2,38.0,29.30,SW,225,1.6,3.0,96,0.00,,,0.11,Rainwise IP-100,2013-11-10 22:52:00,
2013-11-10 17:57:00,39.1,38.0,29.31,WSW,247,1.6,4.0,96,0.00,,,0.11,Rainwise IP-100,2013-11-10 22:57:00,
2013-11-10 18:02:00,39.0,38.0,29.31,SW,225,3.0,4.0,96,0.00,,,0.11,Rainwise IP-100,2013-11-10 23:02:00,
2013-11-10 18:07:00,38.9,38.0,29.31,SW,225,1.2,3.0,96,0.00,,,0.11,Rainwise IP-100,2013-11-10 23:07:00,
2013-11-10 18:12:00,39.0,38.0,29.31,SW,225,2.6,4.0,97,0.00,,,0.11,Rainwise IP-100,2013-11-10 23:12:00,
2013-11-10 18:17:00,39.2,38.0,29.31,SW,225,4.0,5.0,96,0.00,,,0.11,Rainwise IP-100,2013-11-10 23:17:00,
2013-11-10 18:22:00,39.4,38.0,29.31,SW,225,3.5,5.0,96,0.00,,,0.11,Rainwise IP-100,2013-11-10 23:22:00,
2013-11-10 18:27:00,39.5,39.0,29.31,SW,225,3.0,5.0,95,0.00,,,0.11,Rainwise IP-100,2013-11-10 23:27:00,
2013-11-10 18:32:00,39.3,38.0,29.31,SW,225,2.1,4.0,95,0.00,,,0.11,Rainwise IP-100,2013-11-10 23:32:00,
2013-11-10 18:37:00,39.1,38.0,29.31,SW,225,1.2,4.0,95,0.00,,,0.11,Rainwise IP-100,2013-11-10 23:37:00,
2013-11-10 18:42:00,38.9,38.0,29.31,SW,225,2.6,3.0,95,0.00,,,0.11,Rainwise IP-100,2013-11-10 23:42:00,
2013-11-10 18:47:00,38.7,38.0,29.31,SW,225,1.6,4.0,96,0.00,,,0.11,Rainwise IP-100,2013-11-10 23:47:00,
2013-11-10 18:52:00,38.7,38.0,29.31,SW,225,0.0,2.0,96,0.00,,,0.11,Rainwise IP-100,2013-11-10 23:52:00,
2013-11-10 18:57:00,38.6,38.0,29.31,SW,225,0.0,1.0,96,0.00,,,0.11,Rainwise IP-100,2013-11-10 23:57:00,
2013-11-10 19:03:00,38.4,37.0,29.31,SW,225,0.0,1.0,97,0.00,,,0.11,Rainwise IP-100,2013-11-11 00:03:00,
2013-11-10 19:08:00,38.4,37.0,29.32,SW,225,0.0,0.0,97,0.00,,,0.11,Rainwise IP-100,2013-11-11 00:08:00,
2013-11-10 19:13:00,38.4,37.0,29.31,SW,225,0.0,1.0,97,0.00,,,0.11,Rainwise IP-100,2013-11-11 00:13:00,
2013-11-10 19:18:00,38.4,38.0,29.31,SW,225,1.4,2.0,98,0.06,,,0.12,Rainwise IP-100,2013-11-11 00:18:00,
2013-11-10 19:23:00,38.4,38.0,29.31,SSW,202,1.4,3.0,98,0.06,,,0.12,Rainwise IP-100,2013-11-11 00:23:00,
2013-11-10 19:28:00,38.3,38.0,29.32,NNW,337,2.8,2.8,98,0.00,,,0.12,Rainwise IP-100,2013-11-11 00:28:00,
2013-11-10 19:33:00,38.3,38.0,29.31,NNW,337,0.0,3.0,98,0.00,,,0.12,Rainwise IP-100,2013-11-11 00:33:00,
2013-11-10 19:38:00,38.3,38.0,29.32,NNW,337,0.0,0.0,98,0.00,,,0.12,Rainwise IP-100,2013-11-11 00:38:00,
2013-11-10 19:43:00,38.3,38.0,29.32,NNW,337,0.0,0.0,98,0.00,,,0.12,Rainwise IP-100,2013-11-11 00:43:00,
2013-11-10 19:48:00,38.3,38.0,29.32,NNW,337,0.0,0.0,98,0.00,,,0.12,Rainwise IP-100,2013-11-11 00:48:00,
2013-11-10 19:53:00,38.3,38.0,29.32,NNW,337,1.2,1.2,98,0.00,,,0.12,Rainwise IP-100,2013-11-11 00:53:00,
2013-11-10 19:58:00,38.4,38.0,29.32,NNW,337,0.0,1.0,98,0.00,,,0.12,Rainwise IP-100,2013-11-11 00:58:00,
2013-11-10 20:03:00,38.4,38.0,29.31,SW,225,3.0,3.0,98,0.00,,,0.12,Rainwise IP-100,2013-11-11 01:03:00,
2013-11-10 20:08:00,38.5,39.0,29.32,WSW,247,2.3,3.0,99,0.00,,,0.12,Rainwise IP-100,2013-11-11 01:08:00,
2013-11-10 20:13:00,38.5,39.0,29.32,WSW,247,2.1,3.0,98,0.00,,,0.12,Rainwise IP-100,2013-11-11 01:13:00,
2013-11-10 20:19:00,38.6,39.0,29.32,WSW,247,2.8,4.0,98,0.00,,,0.12,Rainwise IP-100,2013-11-11 01:19:00,
2013-11-10 20:24:00,39.0,39.0,29.32,WSW,247,2.3,4.0,98,0.00,,,0.12,Rainwise IP-100,2013-11-11 01:24:00,
2013-11-10 20:29:00,39.1,38.0,29.32,WSW,247,2.3,3.0,97,0.00,,,0.12,Rainwise IP-100,2013-11-11 01:29:00,
2013-11-10 20:34:00,38.8,38.0,29.33,WSW,247,1.6,2.0,97,0.00,,,0.12,Rainwise IP-100,2013-11-11 01:34:00,
2013-11-10 20:39:00,38.6,39.0,29.33,SW,225,1.4,2.0,98,0.00,,,0.12,Rainwise IP-100,2013-11-11 01:39:00,
2013-11-10 20:44:00,38.8,39.0,29.33,SW,225,3.3,3.3,98,0.00,,,0.12,Rainwise IP-100,2013-11-11 01:44:00,
2013-11-10 20:49:00,39.3,38.0,29.33,SW,225,2.6,5.0,97,0.00,,,0.12,Rainwise IP-100,2013-11-11 01:49:00,
2013-11-10 20:54:00,39.6,39.0,29.33,South,180,4.2,6.0,95,0.00,,,0.12,Rainwise IP-100,2013-11-11 01:54:00,
2013-11-10 20:59:00,39.6,39.0,29.33,SSW,202,3.0,5.0,95,0.00,,,0.12,Rainwise IP-100,2013-11-11 01:59:00,
2013-11-10 21:04:00,39.7,39.0,29.34,South,180,4.2,5.0,94,0.00,,,0.12,Rainwise IP-100,2013-11-11 02:04:00,
2013-11-10 21:09:00,39.8,38.0,29.33,SSE,157,2.3,9.0,93,0.00,,,0.12,Rainwise IP-100,2013-11-11 02:09:00,
2013-11-10 21:14:00,39.9,38.0,29.34,SSW,202,3.5,4.0,92,0.00,,,0.12,Rainwise IP-100,2013-11-11 02:14:00,
2013-11-10 21:19:00,40.1,38.0,29.34,WSW,247,5.4,11.0,92,0.00,,,0.12,Rainwise IP-100,2013-11-11 02:19:00,
2013-11-10 21:24:00,40.1,38.0,29.34,SSW,202,0.0,11.0,91,0.00,,,0.12,Rainwise IP-100,2013-11-11 02:24:00,
2013-11-10 21:29:00,40.1,38.0,29.34,SW,225,1.6,6.0,90,0.00,,,0.12,Rainwise IP-100,2013-11-11 02:29:00,
2013-11-10 21:35:00,40.1,38.0,29.34,SW,225,0.0,5.0,90,0.00,,,0.12,Rainwise IP-100,2013-11-11 02:35:00,
2013-11-10 21:40:00,40.0,38.0,29.35,WSW,247,3.5,7.0,90,0.00,,,0.12,Rainwise IP-100,2013-11-11 02:40:00,
2013-11-10 21:45:00,39.8,38.0,29.35,WSW,247,5.1,5.1,90,0.00,,,0.12,Rainwise IP-100,2013-11-11 02:45:00,
2013-11-10 21:50:00,39.6,38.0,29.35,South,180,3.0,5.0,90,0.00,,,0.12,Rainwise IP-100,2013-11-11 02:50:00,
2013-11-10 21:55:00,39.3,37.0,29.35,West,270,7.0,7.0,90,0.00,,,0.12,Rainwise IP-100,2013-11-11 02:55:00,
2013-11-10 22:00:00,39.4,37.0,29.36,SE,135,2.1,10.0,90,0.00,,,0.12,Rainwise IP-100,2013-11-11 03:00:00,
2013-11-10 22:05:00,39.6,37.0,29.35,South,180,6.1,7.0,89,0.00,,,0.12,Rainwise IP-100,2013-11-11 03:05:00,
2013-11-10 22:10:00,39.4,36.0,29.36,SSE,157,3.3,10.0,89,0.00,,,0.12,Rainwise IP-100,2013-11-11 03:10:00,
2013-11-10 22:15:00,39.3,36.0,29.36,South,180,4.2,6.0,89,0.00,,,0.12,Rainwise IP-100,2013-11-11 03:15:00,
2013-11-10 22:20:00,39.2,37.0,29.36,South,180,4.2,7.0,90,0.00,,,0.12,Rainwise IP-100,2013-11-11 03:20:00,
2013-11-10 22:25:00,39.2,36.0,29.36,SE,135,2.3,8.0,89,0.00,,,0.12,Rainwise IP-100,2013-11-11 03:25:00,
2013-11-10 22:30:00,39.1,36.0,29.36,SSW,202,2.6,10.0,89,0.00,,,0.12,Rainwise IP-100,2013-11-11 03:30:00,
2013-11-10 22:35:00,39.0,36.0,29.37,SSE,157,3.3,7.0,89,0.00,,,0.12,Rainwise IP-100,2013-11-11 03:35:00,
2013-11-10 22:40:00,39.0,36.0,29.37,SW,225,0.0,10.0,89,0.00,,,0.12,Rainwise IP-100,2013-11-11 03:40:00,
2013-11-10 22:45:00,39.0,36.0,29.37,South,180,3.7,6.0,89,0.00,,,0.12,Rainwise IP-100,2013-11-11 03:45:00,
2013-11-10 22:51:00,38.7,36.0,29.37,WSW,247,5.1,5.1,89,0.00,,,0.12,Rainwise IP-100,2013-11-11 03:51:00,
2013-11-10 22:56:00,38.5,36.0,29.38,South,180,1.4,7.0,89,0.00,,,0.12,Rainwise IP-100,2013-11-11 03:56:00,
2013-11-10 23:01:00,38.4,35.0,29.38,SSE,157,1.4,4.0,89,0.00,,,0.12,Rainwise IP-100,2013-11-11 04:01:00,
2013-11-10 23:06:00,38.3,35.0,29.39,SSW,202,1.2,7.0,89,0.00,,,0.12,Rainwise IP-100,2013-11-11 04:06:00,
2013-11-10 23:11:00,38.0,36.0,29.39,South,180,3.7,7.0,90,0.00,,,0.12,Rainwise IP-100,2013-11-11 04:11:00,
2013-11-10 23:16:00,37.9,36.0,29.39,SSW,202,4.4,11.0,90,0.00,,,0.12,Rainwise IP-100,2013-11-11 04:16:00,
2013-11-10 23:21:00,37.8,36.0,29.40,ENE,67,1.9,10.0,91,0.06,,,0.13,Rainwise IP-100,2013-11-11 04:21:00,
2013-11-10 23:26:00,37.5,36.0,29.40,NNE,22,3.7,6.0,91,0.12,,,0.14,Rainwise IP-100,2013-11-11 04:26:00,
2013-11-10 23:31:00,37.2,35.0,29.40,SE,135,2.1,5.0,92,0.12,,,0.15,Rainwise IP-100,2013-11-11 04:31:00,
2013-11-10 23:36:00,36.8,35.0,29.40,ESE,112,3.7,5.0,92,0.06,,,0.15,Rainwise IP-100,2013-11-11 04:36:00,
2013-11-10 23:41:00,36.5,35.0,29.40,ENE,67,2.1,5.0,93,0.06,,,0.16,Rainwise IP-100,2013-11-11 04:41:00,
2013-11-10 23:46:00,36.5,35.0,29.40,SSW,202,5.1,8.0,93,0.06,,,0.16,Rainwise IP-100,2013-11-11 04:46:00,
2013-11-10 23:51:00,36.5,35.0,29.40,SE,135,4.7,8.0,93,0.00,,,0.16,Rainwise IP-100,2013-11-11 04:51:00,
2013-11-10 23:56:00,36.6,35.0,29.41,WNW,292,0.0,7.0,93,0.00,,,0.16,Rainwise IP-100,2013-11-11 04:56:00,